TimeEET,TemperatureF,Dew PointF,Humidity,Sea Level PressureIn,VisibilityMPH,Wind Direction,Wind SpeedMPH,Gust SpeedMPH,PrecipitationIn,Events,Conditions,WindDirDegrees,DateUTC
12:50 AM,33.8,24.8,70,30.12,-9999.0,Calm,Calm,-,N/A,,Clear,0,2013-03-24 22:50:00
1:50 AM,33.8,24.8,70,30.12,-9999.0,Calm,Calm,-,N/A,,Clear,0,2013-03-24 23:50:00
2:00 AM,33,24,60,,12,Calm,Calm,,,,,,2013-03-25 00:00:00
2:50 AM,30.2,24.8,80,30.12,-9999.0,Calm,Calm,-,N/A,,Clear,0,2013-03-25 00:50:00
3:50 AM,30.2,24.8,80,30.09,-9999.0,Calm,Calm,-,N/A,,Clear,0,2013-03-25 01:50:00
4:50 AM,28.4,24.8,86,30.09,-9999.0,Calm,Calm,-,N/A,,Clear,0,2013-03-25 02:50:00
5:50 AM,28.4,24.8,86,30.12,3.7,Calm,Calm,-,N/A,,Unknown,0,2013-03-25 03:50:00
6:03 AM,30.2,24.8,80,30.12,-9999.0,Calm,Calm,-,N/A,,Mist,0,2013-03-25 04:03:00
6:50 AM,32.0,26.6,80,30.12,2.5,Variable,1.2,-,N/A,,Mist,0,2013-03-25 04:50:00
7:50 AM,37.4,28.4,70,30.12,-9999.0,East,3.5,-,N/A,,Mist,80,2013-03-25 05:50:00
8:00 AM,36,29,68,,3,East,3.5,,,,Mist,80,2013-03-25 06:00:00
8:34 AM,42.8,26.6,53,30.12,4.3,ESE,3.5,-,N/A,,Unknown,120,2013-03-25 06:34:00
8:50 AM,44.6,28.4,53,30.12,-9999.0,SE,4.6,-,N/A,,Clear,140,2013-03-25 06:50:00
9:50 AM,50.0,26.6,40,30.12,-9999.0,SE,3.5,-,N/A,,Clear,140,2013-03-25 07:50:00
10:50 AM,50.0,28.4,43,30.09,-9999.0,SSE,5.8,-,N/A,,Clear,160,2013-03-25 08:50:00
11:50 AM,55.4,30.2,38,30.06,-9999.0,SSE,3.5,-,N/A,,Clear,150,2013-03-25 09:50:00
12:50 PM,59.0,30.2,34,30.04,6.2,South,8.1,-,N/A,,Mostly Cloudy,170,2013-03-25 10:50:00
1:50 PM,62.6,28.4,27,30.01,6.2,South,8.1,-,N/A,,Mostly Cloudy,190,2013-03-25 11:50:00
2:00 PM,62,28,17,,12,South,8.1,,,,Scattered Clouds,190,2013-03-25 12:00:00
2:50 PM,64.4,26.6,24,30.01,6.2,SSW,5.8,-,N/A,,Mostly Cloudy,200,2013-03-25 12:50:00
3:50 PM,64.4,28.4,26,29.98,6.2,SE,6.9,-,N/A,,Mostly Cloudy,140,2013-03-25 13:50:00
4:50 PM,62.6,30.2,30,29.98,6.2,East,6.9,-,N/A,,Mostly Cloudy,100,2013-03-25 14:50:00
5:50 PM,60.8,30.2,31,29.98,6.2,South,4.6,-,N/A,,Mostly Cloudy,170,2013-03-25 15:50:00
6:50 PM,57.2,28.4,33,29.98,6.2,SE,6.9,-,N/A,,Mostly Cloudy,140,2013-03-25 16:50:00
7:50 PM,53.6,32.0,44,29.98,6.2,South,9.2,-,N/A,,Mostly Cloudy,170,2013-03-25 17:50:00
8:00 PM,53,32,33,,12,South,9.2,,,,Scattered Clouds,170,2013-03-25 18:00:00
8:50 PM,53.6,32.0,44,29.98,6.2,South,9.2,-,N/A,,Mostly Cloudy,170,2013-03-25 18:50:00
9:50 PM,50.0,35.6,58,29.98,6.2,SSE,4.6,-,N/A,,Mostly Cloudy,160,2013-03-25 19:50:00
10:50 PM,50.0,33.8,54,29.95,6.2,SSW,6.9,-,N/A,,Mostly Cloudy,200,2013-03-25 20:50:00
11:50 PM,48.2,35.6,62,29.95,6.2,Variable,2.3,-,N/A,,Mostly Cloudy,0,2013-03-25 21:50:00